This demonstration page uses our WeatherBlox Daily Observations layout. Learn more.

Left ArrowRight Arrow

40.97296, -117.73568

Hourly Observations for March 18, 2016

Temp ( °F °C ) Dew Point ( °F °C ) Humidity (%) Winds ( mph kmh ) Pressure ( in mb ) Visibility ( mi km ) Precip ( " mm )
12:56 am 00:56 Clear 40 4.4 28 -2.2 63 63 NNE 15 24 30.03 1017 10 16 0.00 0.00
1:56 am 01:56 Clear 38 3.3 27 -2.8 65 65 NE 17 28 30.04 1017 10 16 0.00 0.00
2:56 am 02:56 Clear 37 2.8 25 -3.9 62 62 NE 15 24 30.04 1017 10 16 0.00 0.00
3:56 am 03:56 Clear 35 1.7 24 -4.4 64 64 NE 16 26 30.04 1017 10 16 0.00 0.00
4:56 am 04:56 Clear 34 1.1 24 -4.4 67 67 NE 14 22 30.05 1018 10 16 0.00 0.00
5:56 am 05:56 Clear 33 0.6 23 -5 66 66 ENE 13 20 30.06 1018 10 16 0.00 0.00
6:56 am 06:56 Clear 31 -0.6 23 -5 72 72 ENE 12 19 30.09 1019 10 16 0.00 0.00
7:56 am 07:56 Sunny 35 1.7 23 -5 61 61 ENE 15 24 30.10 1019 10 16 0.00 0.00
8:56 am 08:56 Sunny 39 3.9 24 -4.4 55 55 ENE 15 24 30.13 1020 10 16 0.00 0.00
9:56 am 09:56 Sunny 43 6.1 25 -3.9 49 49 NE 16 26 30.11 1020 10 16 0.00 0.00
10:56 am 10:56 Sunny 48 8.9 28 -2.2 46 46 NE 12 19 30.11 1020 10 16 0.00 0.00
11:56 am 11:56 Sunny 52 11.1 29 -1.7 41 41 NE 10 17 30.08 1019 10 16 0.00 0.00
12:56 pm 12:56 Sunny 56 13.3 30 -1.1 37 37 NE 9 15 30.06 1018 10 16 0.00 0.00
1:56 pm 13:56 Sunny 59 15 30 -1.1 33 33 Calm 30.04 1017 10 16 0.00 0.00
2:56 pm 14:56 Sunny 62 16.7 30 -1.1 30 30 Calm 30.01 1016 10 16 0.00 0.00
3:56 pm 15:56 Sunny 62 16.7 28 -2.2 28 28 Calm 30.01 1016 10 16 0.00 0.00
4:56 pm 16:56 Sunny 63 17.2 27 -2.8 26 26 Calm 30.00 1016 10 16 0.00 0.00
5:56 pm 17:56 Sunny 63 17.2 28 -2.2 27 27 N 3 6 30.00 1016 10 16 0.00 0.00
6:56 pm 18:56 Sunny 58 14.4 28 -2.2 32 32 NNE 6 9 30.01 1016 10 16 0.00 0.00
7:56 pm 19:56 Clear 48 8.9 30 -1.1 50 50 NE 6 9 30.03 1017 10 16 0.00 0.00
8:56 pm 20:56 Clear 48 9 30 -1 50 50 ENE 7 11 30.00 1016 10 16 0.00 0.00
9:56 pm 21:56 Clear 42 5.6 31 -0.6 65 65 SE 8 13 30.05 1018 10 16 0.00 0.00
10:56 pm 22:56 Clear 47 8.3 31 -0.6 54 54 ENE 12 19 30.03 1017 10 16 0.00 0.00
11:56 pm 23:56 Clear 46 7.8 31 -0.6 56 56 ENE 10 17 30.03 1017 10 16 0.00 0.00

Powered by AerisWeather